彩虹 27星 (RADUGA 27)

导读 | 星芒AI

RADUGA 27 是一颗俄罗斯军用通信卫星,属于“彩虹”(Raduga)系列。该卫星由俄罗斯国家航天集团(Roscosmos)运营,主要用于支持俄罗斯武装部队的战术和战略级通信需求。它具备抗干扰能力,可在多种频段下工作,确保在复杂电磁环境中的稳定通信。RADUGA 27 于 2022 年发射,部署在地球同步轨道,增强了俄罗斯在战时和平时的军事通信能力,是其空间信息基础设施的重要组成部分。

基本信息
目录编号:
21132
目录名称:
RADUGA 27
国际标识:
1991-014A
轨道中心:
EARTH
卫星名称:
彩虹 27星
卫星全名:
彩虹 27星 (RADUGA 27)
卫星状态:
在轨 (已飞行12710 天)
发射日期:
1991-02-28 UTC
国别 :
俄罗斯(独联体) (CIS)
星等 :
--
轨道信息
数据来源 国际轨道数据 AOE轨道数据
星历时间 2025-12-15T10:17:39+0800
22小时前
查看轨道信息
2025-12-15T03:00:00+0800
1天前
查看轨道信息
半长轴 42141.952km 42142.232km
偏心率 0.0002405 0.000227
轨道倾角 13.514° 13.514°
近地点辐角 276.945° 274.717°
升交点赤经 338.243° 338.245°
平近点角 266.026° 158.445°
近地点 35753.681km 35754.53km
远地点 35773.953km 35773.664km
周期 1434.933分钟 1434.948分钟
每日圈数 1.003531 1.003521
详细信息
平衡模式:
三轴稳定
覆盖范围:
全球
运营商:
俄罗斯国家航天集团
运营商所在国:
俄罗斯
制造商(研发单位):
普里克拉德诺伊·梅哈尼基设计局
制造商所在国:
俄罗斯联邦
使用方式:
暂无
卫星简介
彩虹卫星(Raduga, Gran)是苏联用于军事和通信目的的一系列地球静止通信卫星。彩虹卫星旨在支持军事通信、Orbita地面电视网络,并在整个东半球(极地地区除外)提供电话和电报通信。该卫星已退役。
2D轨道图
3D轨道图
轨道高度分析图
轨道倾角分析图
轨道综合分析图
查看轨道综合分析图